User: anonymous   Login
Location: Unspecified
(0.0000°N, 0.0000°E)
Time: 23:02:49
(UTC+00:00)
Language:

STARLINK-3145 - Orbit

View from above orbital plane
View from above orbital plane
View from above satellite
View from above satellite

Ground track
Ground track

The orbit is defined by the following mean orbital elements,

1 49455U          26145.63228416 +.00000000 +00000-0 +44693-4 0 00000
2 49455  53.2127 233.7093 0000862  84.3861 275.7229 15.08843441    04
Epoch (UTC): 25 May 2026 15:10:29
Eccentricity: 0.0000862
inclination: 53.2127°
perigee height: 539 km
apogee height: 540 km
right ascension of ascending node: 233.7093°
argument of perigee: 84.3861°
revolutions per day: 15.08843441
mean anomaly at epoch: 275.7229°

The dashed part of the orbit path shows where the satellite is in the earth's shadow,  

DLR